This demonstration page uses our WeatherBlox Daily Observations layout. Learn more.

39.92423, -83.80882

Hourly Observations for September 14, 2017

Temp ( °F °C ) Dew Point ( °F °C ) Humidity (%) Winds ( mph kmh ) Pressure ( in mb ) Visibility ( mi km ) Precip ( " mm )
12:56 am 00:56 Cloudy 59 15 58 14.4 96 96 S 6 9 29.83 1010 10 16.09344 0.01 0.254
1:56 am 01:56 Cloudy 59 15 58 14.4 96 96 S 5 7 29.83 1010 10 16.09344 0 0
2:29 am 02:29 Cloudy 59 15 57 14 94 94 SSW 6 9 29.83 1010 10 16.09344 0 0
2:56 am 02:56 Cloudy 59 15 58 14.4 96 96 Calm 29.83 1010 10 16.09344 0 0
3:37 am 03:37 Cloudy 59 15 57 14 94 94 S 3 6 29.85 1011 10 16.09344 0 0
3:56 am 03:56 Cloudy 59 15 58 14.4 96 96 S 3 6 29.83 1010 10 16.09344 0 0
4:17 am 04:17 Cloudy 59 15 57 14 94 94 S 3 6 29.85 1011 10 16.09344 0 0
4:56 am 04:56 Cloudy N/A N/A N/A Calm N/A 10 16.09344 0 0
5:26 am 05:26 Cloudy N/A N/A N/A Calm N/A 10 16.09344 0 0
5:34 am 05:34 Cloudy N/A N/A N/A Calm N/A 9 14.484096 0 0
5:56 am 05:56 Cloudy 59 15 58 14.4 96 96 Calm 29.85 1011 9 14.484096 0 0
6:05 am 06:05 Cloudy 59 15 59 15 100 100 Calm 29.88 1012 10 16.09344 0 0
6:29 am 06:29 Cloudy 59 15 59 15 100 100 Calm 29.88 1012 8 12.874752 0 0
6:56 am 06:56 Cloudy with Mist and Fog 59 15 59 15 100 100 Calm 29.88 1012 6 9.656064 0 0
7:15 am 07:15 Cloudy 59 15 59 15 100 100 Calm 29.88 1012 7 11.265408 0 0
7:25 am 07:25 Cloudy with Mist and Fog 59 15 59 15 100 100 Calm 29.91 1013 5 8.04672 0 0
7:46 am 07:46 Cloudy with Mist and Fog 59 15 59 15 100 100 Calm 29.91 1013 4 6.437376 0 0
7:56 am 07:56 Cloudy with Mist and Fog 59 15 59 15 100 100 Calm 29.88 1012 5 8.04672 0 0
8:05 am 08:05 Cloudy with Mist and Fog 59 15 59 15 100 100 Calm 29.91 1013 4 6.437376 0 0
8:13 am 08:13 Cloudy with Mist and Fog 59 15 59 15 100 100 Calm 29.91 1013 2 3.218688 0 0
8:19 am 08:19 Cloudy with Mist and Fog 61 16 59 15 94 94 Calm 29.91 1013 4 6.437376 0 0
8:43 am 08:43 Cloudy 61 16 59 15 94 94 SSE 3 6 29.91 1013 7 11.265408 0 0
8:56 am 08:56 Cloudy 60 15.6 59 15 96 96 Calm 29.88 1012 9 14.484096 0 0
9:15 am 09:15 Cloudy 61 16 59 15 94 94 Calm 29.91 1013 10 16.09344 0 0
9:36 am 09:36 Cloudy 61 16 59 15 94 94 WSW 3 6 29.91 1013 10 16.09344 0 0
9:56 am 09:56 Cloudy 62 16.7 59 15 90 90 Calm 29.91 1013 10 16.09344 0 0
10:35 am 10:35 Cloudy 63 17 59 15 88 88 Calm 29.91 1013 10 16.09344 0 0
10:56 am 10:56 Cloudy 63 17.2 59 15 87 87 W 3 6 29.94 1014 10 16.09344 0 0
11:03 am 11:03 Cloudy 63 17 59 15 88 88 Calm 29.91 1013 10 16.09344 0 0
11:11 am 11:11 Cloudy 63 17 61 16 94 94 Calm 29.91 1013 10 16.09344 0 0
11:44 am 11:44 Cloudy 63 17 61 16 94 94 SSW 3 6 29.91 1013 10 16.09344 0 0
11:56 am 11:56 Cloudy 64 17.8 60 15.6 87 87 SW 5 7 29.94 1014 10 16.09344 0 0
12:56 pm 12:56 Cloudy 64 17.8 60 15.6 87 87 SW 3 6 29.91 1013 10 16.09344 0.001 0.001
1:56 pm 13:56 Cloudy 66 18.9 60 15.6 81 81 Calm 29.91 1013 10 16.09344 0 0
2:37 pm 14:37 Cloudy 68 20 59 15 73 73 WSW 7 11 29.91 1013 10 16.09344 0 0
2:56 pm 14:56 Mostly Cloudy 68 20 60 15.6 76 76 W 7 11 29.91 1013 10 16.09344 0 0
3:12 pm 15:12 Cloudy 68 20 61 16 78 78 W 5 7 29.91 1013 10 16.09344 0 0
3:56 pm 15:56 Cloudy 69 20.6 61 16.1 76 76 Calm 29.91 1013 10 16.09344 0 0
4:42 pm 16:42 Cloudy 66 19 61 16 83 83 WNW 8 13 29.91 1013 10 16.09344 0 0
4:56 pm 16:56 Cloudy with Light Rain 65 18.3 61 16.1 87 87 W 10 17 29.91 1013 10 16.09344 0.001 0.001
5:03 pm 17:03 Cloudy with Light Rain 64 18 63 17 94 94 W 8 13 29.91 1013 7 11.265408 0.001 0.001
5:56 pm 17:56 Cloudy 65 18.3 62 16.7 90 90 W 5 7 29.94 1014 10 16.09344 0.001 0.001
6:56 pm 18:56 Cloudy 65 18.3 62 16.7 90 90 W 3 6 29.94 1014 10 16.09344 0 0
7:56 pm 19:56 Cloudy 64 17.8 62 16.7 93 93 Calm 29.97 1015 10 16.09344 0 0
8:56 pm 20:56 Cloudy 63 17.2 62 16.7 97 97 Calm 29.97 1015 10 16.09344 0 0
9:56 pm 21:56 Cloudy 62 16.7 61 16.1 96 96 Calm 29.97 1015 10 16.09344 0 0
10:56 pm 22:56 Cloudy 62 16.7 61 16.1 96 96 Calm 30 1016 10 16.09344 0 0

Powered by AerisWeather